Вернуться в каталог

CZ-2D DEB

АктивенSSO
NORAD 38177·DEBRIS·🇨🇳 China

Запущен Nov 20, 2011 с Jiuquan Satellite Launch Center

Loading…

Ближайшие Пролёты (ближайшие 24 часа)

TLE

СвежийSource: Space-Track

Эпоха: Sep 13, 2026, 01:02 UTC

1 38177U 11068E   26256.04349663  .00000979  00000-0  25843-3 0  9998
2 38177  98.5000 283.7152 0117818 319.4315  68.7332 14.47271584773346

Отслеживайте CZ-2D DEB в реальном времени с AllMySat

Download on the App Store